Location: The Saddle
(36.8333°N, 80.3417°W)
Time: 12:18:48
(UTC-05:00)

A-11 Canister half - Pass Details

Date: 16 December 2023
Orbit: 1526 x 1682 km, 47.3° (Epoch: 22 February)

Event Time Altitude Azimuth Distance (km) Brightness Sun altitude
Rises 17:02:02 0° 252° (WSW) 4,880 13.9 -0.1°
Reaches altitude 10° 17:05:13 10° 256° (WSW) 3,909 12.9 -0.6°
Maximum altitude 17:15:12 63° 336° (NNW) 1,835 9.5 -2.4°
Drops below altitude 10° 17:25:17 10° 58° (ENE) 3,940 10.5 -4.2°
Enters shadow 17:26:55 - 60° (ENE) 4,431 10.7 -4.5°
Sets 17:28:31 0° 61° (ENE) 4,921 - -4.8°
